Location: Unspecified
(0.0000°N, 0.0000°E)
Time: 17:19:22
(UTC+00:00)

LightSail 2 - Pass Details

Date: 16 January 2020
Orbit: 704 x 720 km, 24.0° (Epoch: 22 January)

Event Time Altitude Azimuth Distance (km) Brightness Sun altitude
Exits shadow 04:48:35 31° 258° (WSW) 1,222 5.9 -18.8°
Maximum altitude 04:50:34 47° 205° (SSW) 928 5.7 -18.4°
Drops below altitude 10° 04:55:28 10° 132° (SE) 2,162 8.7 -17.2°
Sets 04:57:59 0° 126° (SE) 3,079 10.0 -16.7°
